Location: Winnipauk Village
(41.1295°N, 73.4171°W)
Time: 14:41:26
(UTC+00:00)

Hubble Space Telescope - Pass Details

Date: 25 July 2021
Orbit: 535 x 539 km, 28.5° (Epoch: 21 September)

Event Time Altitude Azimuth Distance (km) Brightness Sun altitude
Rises 01:26:29 0° 229° (SW) 2,663 4.4 -11.6°
Reaches altitude 10° 01:29:51 10° 200° (SSW) 1,773 3.2 -12.1°
Maximum altitude 01:31:42 13° 173° (S) 1,604 2.8 -12.4°
Enters shadow 01:31:56 13° 169° (S) 1,607 2.7 -12.4°
